sat.trackr.live / text

‹ back to catalog

EXPRESS-AT1

NORAD 39612 · 2014-010A

PAYLOAD ACTIVE UNKNOWN

§ Identity

Operator
Country
CIS
Launch date
2014-03-15
Launch site
TYMSC
Launch vehicle
Mass (kg)
RCS (m²)
3.62

Purposes: comms

External: N2YO · Heavens-Above · Gunter

§ Orbital elements

Epoch: 2026-09-20T00:32:21.630912Z

Period
1,435.47 min
Inclination
0.4953°
Eccentricity
0.0004970
Mean motion
1.00315789 rev/d
Perigee alt
35,753.3 km
Apogee alt
35,795.2 km
Semi-major
42,152.4 km
B*
0.0000e+0
RAAN
84.4209°
Arg perigee
80.5594°
Mean anomaly
277.9957°
Rev number
4,576

§ Raw data

EXPRESS-AT11 39612U 14010A   26263.02247258 -.00000110  00000+0  00000+0 0  99972 39612   0.4953  84.4209 0004970  80.5594 277.9957  1.00315789 45764

JSON: /api/v1/satellites/39612 · /tle

For live sub-satellite position, see the globe view (requires WebGL).

§ Visibility from observer

Set your observer location to see the next 7 days of passes ≥ 10°. The values pass through the URL so the page stays shareable.

No JS? Fill the form by hand. The geolocation button needs JavaScript.